Location: Juzet
(42.9779°N, 0.7597°E)
Time: 02:55:22
(UTC+00:00)

SL-24 DEB - Pass Details

Date: 14 July 2020
Orbit: 667 x 698 km, 92.0° (Epoch: 04 August)

Event Time Altitude Azimuth Distance (km) Brightness Sun altitude
Rises 00:55:51 0° 6° (N) 3,065 9.0 -24.3°
Reaches altitude 10° 00:58:07 10° 8° (N) 2,149 7.9 -24.2°
Maximum altitude 01:02:52 77° 94° (E) 715 4.2 -23.9°
Enters shadow 01:03:20 69° 149° (SSE) 743 4.2 -23.9°
